[[{"header":{"parameterUnit":"m.s-1","parameterCategory":1,"la1":30.2991,"la2":30.254,"lo1":-89.0895,"lo2":-89.0444,"dy":0.0017,"dx":0.0017,"nx":28,"ny":28,"refTime":"2023-09-04T03:00:00:Z","depth":0,"parameterNumber":2,"parameterNumberName":"U-component_of_WINDS"},"data":[0,0,0,0,0,0,0,0,0,0,0,0,0,0,0,0,0,0,0,0,0,0,0,0,0,0,0,0,0,0,0,0,0,0,0,0,0,0,0,0,0,0,0,0,0,0,0,0,0,0,0,0,0,0,0,0,0,0,-4.1431,-4.1432,0,-4.1554,-4.1555,-4.1557,-4.1519,-4.1516,-4.1514,-4.1511,-4.1635,-4.1641,-4.1646,0,0,0,0,0,0,0,0,0,0,0,0,0,-4.1162,-4.1167,-4.1431,-4.1432,-4.1434,-4.1554,-4.1555,-4.1557,-4.1519,-4.1516,-4.1513,-4.151,-4.1633,-4.164,-4.1647,0,0,0,0,0,0,0,0,0,0,0,0,0,-4.1281,-4.1169,-4.143,-4.143,-4.1431,-4.1553,-4.1556,-4.1558,-4.152,-4.1516,-4.1512,-4.1509,-4.1631,-4.1639,-4.1648,-4.1778,0,0,-4.1674,-4.1678,0,0,0,0,0,0,0,0,-4.1274,-4.1291,-4.1428,-4.143,-4.1431,-4.1517,-4.1506,-4.1631,-4.1521,-4.1486,-4.1511,-4.1507,-4.1599,-4.161,-4.1641,-4.1784,-4.1789,-4.1675,-4.168,-4.1684,-4.1686,0,0,0,0,0,0,0,-4.1266,-4.1286,-4.1479,-4.143,-4.1432,-4.1423,-4.1435,-4.153,-4.1563,-4.1489,-4.1486,-4.1502,-4.1599,-4.1633,-4.1644,-4.1791,-4.1675,-4.1682,-4.1687,-4.1691,-4.2047,-4.2051,0,0,0,0,0,0,-4.1257,-4.1279,-4.1475,-4.1483,-4.1342,-4.1431,-4.1445,-4.1494,-4.1562,-4.1568,-4.1505,-4.1499,-4.1621,-4.1634,-4.1648,-4.1805,-4.1684,-4.1692,-4.1696,-4.2043,-4.2048,-4.2053,0,0,0,0,0,0,-4.1251,-4.1275,-4.147,-4.138,-4.1405,-4.1439,-4.1494,-4.1498,-4.1532,-4.1574,-4.1579,-4.1534,-4.1618,-4.1636,-4.1746,-4.1809,-4.1695,-4.1703,-4.2038,-4.2045,-4.2051,-4.212,0,0,0,0,0,0,-4.1244,-4.1273,-4.1323,-4.1382,-4.141,-4.1567,-4.1498,-4.1503,-4.1547,-4.1541,-4.1602,-4.1609,-4.1616,-4.1734,-4.1755,-4.1819,-4.171,-4.2032,-4.2041,-4.2049,-4.2112,-4.2128,-4.2142,0,0,0,0,0,-4.1234,-4.1337,-4.1326,-4.135,-4.1473,-4.1571,-4.1586,-4.1594,-4.1552,-4.1603,-4.163,-4.1607,-4.1799,-4.1746,-4.1769,-4.1836,-4.2028,-4.2039,-4.2048,-4.2106,-4.2125,-4.2141,0,0,0,0,0,0,-4.1283,-4.1345,-4.1333,-4.1458,-4.151,-4.1564,-4.1628,-4.1614,-4.1678,-4.167,-4.1676,-4.169,-4.1803,-4.1831,-4.177,-4.1966,-4.1908,-4.1923,-4.1943,-4.1962,-4.1976,-4.1966,-4.1717,0,0,0,0,0,-4.1309,-4.1384,-4.1433,-4.1539,-4.1566,-4.1593,-4.1635,-4.1637,-4.169,-4.1712,-4.1747,-4.1799,-4.1871,-4.1918,-4.1987,-4.2117,-4.2129,-4.2175,-4.2189,-4.2201,-4.2213,-4.2284,-4.2305,-4.2085,-4.2085,-4.2085,0,0,-4.1362,-4.1405,-4.1452,-4.155,-4.159,-4.1667,-4.1611,-4.1695,-4.1752,-4.1724,-4.183,-4.1858,-4.1917,-4.2038,-4.2092,-4.2064,-4.2277,-4.2214,-4.2223,-4.2229,-4.2296,-4.2317,-4.2335,-4.2092,-4.2091,-4.2089,0,0,-4.1498,-4.1538,-4.163,-4.1673,-4.1735,-4.1752,-4.1775,-4.1832,-4.185,-4.1957,-4.1938,-4.2006,-4.2131,-4.2173,-4.2211,-4.2366,-4.2347,-4.2389,-4.2464,-4.2533,-4.255,-4.2566,-4.262,-4.2639,-4.2401,-4.2401,-4.2401,0,-4.1555,-4.1671,-4.1679,-4.1765,-4.1809,-4.1789,-4.1883,-4.1923,-4.2004,-4.2035,-4.2002,-4.2159,-4.2197,-4.2327,-4.2365,-4.2397,-4.2422,-4.238,-4.2547,-4.2563,-4.2577,-4.2629,-4.2649,-4.2406,-4.2405,-4.2405,-4.2404,0,-4.1739,-4.182,-4.1887,-4.1967,-4.2018,-4.2107,-4.2129,-4.218,-4.2178,-4.2199,-4.2309,-4.2354,-4.2432,-4.2464,-4.2462,-4.2594,-4.2575,-4.2545,-4.2486,-4.2602,-4.2651,-4.2671,-4.2412,-4.241,-4.2409,-4.2408,0,0,-4.1906,-4.1991,-4.2016,-4.2052,-4.212,-4.2183,-4.2271,-4.2349,-4.2392,-4.245,-4.2524,-4.2631,-4.2604,-4.2647,-4.2651,-4.2711,-4.283,-4.2674,-4.2676,-4.2701,-4.2978,-4.2999,-4.3022,-4.2819,-4.2823,-4.2826,-4.2973,0,-4.2047,-4.2203,-4.2214,-4.2355,-4.2429,-4.2413,-4.249,-4.254,-4.2563,-4.263,-4.2654,-4.273,-4.269,-4.2716,-4.2775,-4.2803,-4.2886,-4.2793,-4.2887,-4.289,-4.2871,-4.3047,-4.3069,-4.3205,-4.2992,-4.2995,-4.2998,0,-4.2231,-4.2295,-4.2443,-4.2502,-4.2534,-4.2603,-4.2675,-4.2739,-4.2796,-4.2808,-4.2858,-4.2854,-4.2944,-4.2884,-4.3009,-4.2946,-4.2985,-4.3005,-4.3011,-4.3018,-4.2949,-4.3058,-4.3249,-4.3269,-4.3028,-4.3026,-4.3023,0,-4.2337,-4.246,-4.2565,-4.2597,-4.2668,-4.2717,-4.2749,-4.2803,-4.2849,-4.2912,-4.2942,-4.3015,-4.3054,-4.3111,-4.3126,-4.3081,-4.3251,-4.3192,-4.3263,-4.3262,-4.3297,-4.3294,-4.3496,-4.3326,-4.3325,-4.3325,-4.3324,0,-4.2491,-4.2583,-4.2614,-4.2678,-4.278,-4.2792,-4.2893,-4.2922,-4.297,-4.3039,-4.303,-4.3096,-4.3113,-4.3181,-4.3194,-4.3295,-4.3313,-4.3325,-4.3327,-4.3325,-4.3324,-4.335,-4.334,-4.333,-4.3329,-4.3328,-4.3327,0,-4.2626,-4.2651,-4.2764,-4.2823,-4.284,-4.2912,-4.2963,-4.3025,-4.3047,-4.3135,-4.3157,-4.3192,-4.3272,-4.3294,-4.339,-4.3398,-4.3517,-4.3511,-4.3498,-4.3497,-4.3567,-4.3559,-4.379,-4.3821,-4.3632,-4.3634,-4.3636,0,-4.2722,-4.2792,-4.2859,-4.2906,-4.294,-4.3015,-4.3062,-4.3077,-4.3127,-4.3198,-4.3252,-4.3331,-4.3395,-4.3525,-4.3558,-4.3632,-4.3627,-4.3703,-4.3637,-4.3633,-4.3626,-4.3621,-4.3628,-4.3714,-4.3716,-4.3718,-4.3719,0,-4.289,-4.2899,-4.2968,-4.3042,-4.3099,-4.3158,-4.3214,-4.3253,-4.3276,-4.3333,-4.3415,-4.3465,-4.3564,-4.3643,-4.3718,-4.375,-4.3739,-4.374,-4.376,-4.3758,-4.3747,-4.3753,-4.353,-4.3734,-4.3732,-4.3731,-4.373,-4.373,-4.3007,-4.3069,-4.3126,-4.3204,-4.3248,-4.3301,-4.3362,-4.3393,-4.3463,-4.3545,-4.355,-4.364,-4.3696,-4.3795,-4.3832,-4.3902,-4.3879,-4.3909,-4.3916,-4.3923,-4.3928,-4.3737,-4.3916,-4.3916,-4.3915,-4.3915,-4.3915,0,-4.3174,-4.321,-4.3282,-4.3361,-4.3422,-4.3408,-4.347,-4.3522,-4.3601,-4.3655,-4.3719,-4.3814,-4.3891,-4.3932,-4.4009,-4.4057,-4.4054,-4.4076,-4.4072,-4.408,-4.3944,-4.3919,-4.4078,-4.4078,-4.4078,-4.4078,-4.4078,-4.4078,-4.3267,-4.3371,-4.3387,-4.3513,-4.3549,-4.3637,-4.3674,-4.3723,-4.3766,-4.3873,-4.3937,-4.3964,-4.4013,-4.4093,-4.4163,-4.4173,-4.4201,-4.4227,-4.4234,-4.4106,-4.4089,-4.4073,-4.4049,-4.4233,-4.4233,-4.4363,-4.4364,-4.4365]},{"header":{"parameterUnit":"m.s-1","parameterCategory":1,"la1":30.2991,"la2":30.254,"lo1":-89.0895,"lo2":-89.0444,"dy":0.0017,"dx":0.0017,"nx":28,"ny":28,"refTime":"2023-09-04T03:00:00:Z","depth":0,"parameterNumber":3,"parameterNumberName":"V-component_of_WINDS"},"data":[0,0,0,0,0,0,0,0,0,0,0,0,0,0,0,0,0,0,0,0,0,0,0,0,0,0,0,0,0,0,0,0,0,0,0,0,0,0,0,0,0,0,0,0,0,0,0,0,0,0,0,0,0,0,0,0,0,0,2.5752,2.5754,0,2.5921,2.5923,2.5925,2.5996,2.5995,2.5995,2.5995,2.6166,2.6171,2.6175,0,0,0,0,0,0,0,0,0,0,0,0,0,2.549,2.5495,2.5752,2.5754,2.5756,2.5921,2.5923,2.5925,2.5996,2.5995,2.5995,2.5995,2.6164,2.617,2.6176,0,0,0,0,0,0,0,0,0,0,0,0,0,2.5626,2.5496,2.5752,2.5811,2.5818,2.592,2.5923,2.5926,2.5996,2.5995,2.5995,2.5994,2.6162,2.6169,2.6177,2.6231,0,0,2.6199,2.6202,0,0,0,0,0,0,0,0,2.5618,2.5636,2.58,2.5807,2.5815,2.5937,2.5894,2.6028,2.5996,2.5928,2.5995,2.5994,2.609,2.6103,2.6136,2.6239,2.6247,2.6199,2.6204,2.6207,2.6209,0,0,0,0,0,0,0,2.5609,2.5629,2.5819,2.5803,2.5812,2.583,2.5848,2.592,2.601,2.5934,2.594,2.5959,2.6094,2.6129,2.614,2.6249,2.6199,2.6206,2.621,2.6213,2.6409,2.6409,0,0,0,0,0,0,2.559,2.562,2.5814,2.5824,2.5714,2.5835,2.5856,2.5898,2.6009,2.6026,2.5959,2.5962,2.6116,2.6132,2.6147,2.622,2.6207,2.6214,2.6218,2.6408,2.6409,2.641,0,0,0,0,0,0,2.5584,2.5606,2.5807,2.5724,2.5751,2.584,2.5887,2.5902,2.5937,2.6028,2.6044,2.5978,2.6117,2.6136,2.621,2.6226,2.6217,2.6224,2.6407,2.6408,2.6409,2.6364,0,0,0,0,0,0,2.5576,2.5604,2.5625,2.5724,2.5755,2.5867,2.5888,2.5906,2.5949,2.5954,2.605,2.6066,2.6118,2.6199,2.6218,2.6236,2.6229,2.6406,2.6407,2.6409,2.6365,2.6364,2.6363,0,0,0,0,0,2.5566,2.5605,2.5626,2.5649,2.5784,2.5868,2.5886,2.5946,2.595,2.5973,2.6032,2.6062,2.6222,2.6206,2.6228,2.6248,2.6405,2.6407,2.6409,2.6365,2.6364,2.6363,0,0,0,0,0,0,2.5504,2.5619,2.5643,2.5715,2.5782,2.588,2.591,2.5942,2.6009,2.601,2.6081,2.6102,2.6171,2.6217,2.6198,2.6309,2.6316,2.6322,2.6276,2.6275,2.6274,2.6262,2.6235,0,0,0,0,0,2.5499,2.5559,2.5655,2.5709,2.5742,2.582,2.5859,2.59,2.5971,2.5999,2.6064,2.6132,2.6198,2.6239,2.6304,2.6372,2.6395,2.6398,2.6397,2.6396,2.64,2.6441,2.6444,2.6416,2.6416,2.6416,0,0,2.5489,2.5559,2.5592,2.5699,2.5755,2.5815,2.5843,2.5905,2.5951,2.6009,2.6083,2.6133,2.6214,2.6285,2.632,2.6326,2.6413,2.6398,2.6396,2.6402,2.6443,2.6446,2.6448,2.6417,2.6417,2.6417,0,0,2.5501,2.5559,2.5612,2.5668,2.5754,2.5806,2.5819,2.5913,2.5949,2.6025,2.6071,2.6126,2.6237,2.6293,2.6336,2.6372,2.6403,2.6391,2.6387,2.6426,2.6428,2.6431,2.6445,2.6449,2.6396,2.6395,2.6395,0,2.5477,2.557,2.5634,2.5695,2.5741,2.5798,2.5852,2.5903,2.6005,2.6036,2.6042,2.6184,2.6242,2.6329,2.6338,2.637,2.6388,2.638,2.6423,2.6426,2.6429,2.6443,2.6448,2.6394,2.6394,2.6394,2.6394,0,2.5537,2.56,2.5632,2.5731,2.5781,2.5837,2.5911,2.5954,2.5991,2.6043,2.612,2.6193,2.6274,2.6298,2.6334,2.6391,2.6392,2.6409,2.6418,2.6429,2.6443,2.6449,2.6391,2.6391,2.6392,2.6392,0,0,2.5513,2.5648,2.5659,2.5705,2.5805,2.5856,2.5915,2.5997,2.6033,2.6102,2.6154,2.6248,2.6266,2.6315,2.6358,2.6392,2.6418,2.6406,2.6409,2.6406,2.6486,2.6472,2.6477,2.6439,2.6441,2.6442,2.648,0,2.5539,2.5649,2.571,2.5794,2.5855,2.5911,2.5964,2.6031,2.6081,2.614,2.6196,2.6262,2.628,2.631,2.6347,2.6407,2.6435,2.6405,2.6489,2.6491,2.6467,2.6485,2.647,2.6502,2.6485,2.6486,2.6487,0,2.5583,2.5653,2.5744,2.5839,2.5866,2.5912,2.5993,2.6048,2.6126,2.6161,2.6216,2.626,2.6326,2.633,2.6423,2.6401,2.6439,2.6474,2.6477,2.6487,2.6489,2.6496,2.6514,2.6519,2.6497,2.6496,2.6495,0,2.5558,2.5674,2.5744,2.5782,2.5894,2.5926,2.5974,2.6051,2.6097,2.6167,2.6198,2.6274,2.6316,2.6375,2.6438,2.6435,2.6525,2.6534,2.6555,2.6554,2.6571,2.6569,2.6596,2.6595,2.6595,2.6595,2.6595,0,2.558,2.5634,2.5735,2.5778,2.584,2.591,2.597,2.6022,2.6091,2.6146,2.6199,2.6249,2.633,2.639,2.644,2.6509,2.6528,2.6558,2.657,2.6553,2.6549,2.6579,2.6578,2.6597,2.6596,2.6596,2.6596,0,2.5562,2.5632,2.5712,2.5812,2.5839,2.588,2.5966,2.6011,2.6065,2.6134,2.6154,2.6239,2.6313,2.6382,2.648,2.6514,2.6584,2.66,2.6558,2.6565,2.6583,2.6581,2.663,2.664,2.6632,2.6632,2.6632,0,2.5572,2.5615,2.572,2.5761,2.5809,2.5873,2.5921,2.5992,2.6039,2.6132,2.6166,2.6244,2.631,2.6426,2.6496,2.6572,2.6591,2.6603,2.6602,2.6584,2.6592,2.6589,2.6594,2.6601,2.6601,2.6601,2.6601,0,2.5582,2.5615,2.5682,2.5761,2.5816,2.5882,2.5949,2.5979,2.6063,2.6114,2.6191,2.6242,2.6344,2.6421,2.6506,2.6556,2.6593,2.6601,2.661,2.6593,2.6567,2.6582,2.6555,2.6599,2.6599,2.6599,2.6599,2.66,2.5579,2.562,2.5702,2.5775,2.5833,2.5895,2.5942,2.6003,2.6069,2.6158,2.6196,2.6274,2.6353,2.647,2.652,2.6582,2.659,2.6603,2.6607,2.6609,2.6606,2.6557,2.6598,2.6598,2.6598,2.6598,2.6599,0,2.5593,2.5649,2.5715,2.5808,2.5866,2.5897,2.5973,2.6019,2.6088,2.6158,2.6223,2.6312,2.6388,2.6466,2.6546,2.6581,2.66,2.66,2.6598,2.6609,2.6594,2.6578,2.6583,2.6583,2.6583,2.6583,2.6583,2.6583,2.5607,2.5679,2.5722,2.5824,2.588,2.5957,2.5998,2.6056,2.6113,2.6211,2.6275,2.6325,2.6399,2.6485,2.6557,2.6577,2.6605,2.66,2.6625,2.6609,2.661,2.661,2.6596,2.6605,2.6605,2.6635,2.6636,2.6636]}]]